User: anonymous   Login
Location: Wald
(31.7579°N, 86.6655°W)
Time: 23:07:07
(UTC+00:00)
Language:

CENTAUR R/B - Orbit

View from above orbital plane
View from above orbital plane
View from above satellite
View from above satellite

Ground track
Ground track

The orbit data is extracted from the following two-line orbital elements,

1 26906U 01040B   20270.75205032 0.00000000  00000-0  00000-0 0    06
2 26906  63.4393 140.3953 0452080 339.4338  20.5662 13.44062405    00
Epoch (UTC): 26 September 2020 18:02:57
Eccentricity: 0.0452080
inclination: 63.4393°
perigee height: 756 km
apogee height: 1432 km
right ascension of ascending node: 140.3953°
argument of perigee: 339.4338°
revolutions per day: 13.44062405
mean anomaly at epoch: 20.5662°
orbit number at epoch: 0

The dashed part of the orbit path shows where the satellite is in the earth's shadow,  

DLR